Weather History for KCEU - March, 2014

Change the Weather History Date:

Wednesday, March 12, 2014

  Actual Average Record
Temperature  
Mean Temperature 60 °F -  
Max Temperature 75 °F 65 °F 85 °F (1973)
Min Temperature 44 °F 40 °F 19 °F (1934)
Degree Days  
Heating Degree Days 4    
Growing Degree Days 10 (Base 50)    
Moisture  
Dew Point 50 °F    
Average Humidity 71    
Maximum Humidity 90    
Minimum Humidity 35    
Precipitation  
Precipitation 0.19 in - - ()
Sea Level Pressure  
Sea Level Pressure 29.59 in    
Wind  
Wind Speed 7 mph (WSW)    
Max Wind Speed 24 mph    
Max Gust Speed 44 mph    
Visibility 7 miles    
Events Rain    
Averages and records for this station are not official NWS values.
T = Trace of Precipitation, MM = Missing Value Source: NWS Daily Summary

Daily Weather History Graph

Daily Weather History Graph

Search for Another Location

Airport or City:

Trip Planner

Search our weather history database for the weather conditions in past years. The results will help you decide how hot, cold, wet, or windy it might be!

Date:

Astronomy

Mar. 12, 2014 Rise Set
Actual Time 7:46 AM EDT 7:36 PM EDT
Civil Twilight 7:21 AM EDT 8:01 PM EDT
Nautical Twilight 6:51 AM EDT 8:31 PM EDT
Astronomical Twilight 6:22 AM EDT 9:00 PM EDT
Moon 4:13 PM EDT (3/12) 5:09 AM EDT (3/12)
Length of Visible Light 12h 40m
Length of Day
11h 50m
Waxing Gibbous, 85% of the Moon is Illuminated
Mar 12
Waxing Gibbous
Mar 16
Full
Mar 23
Last Quarter
Mar 30
New
Apr 7
First Quarter

Hourly Weather History & Observations

Time (EDT) Temp. Windchill Dew Point Humidity Pressure Visibility Wind Dir Wind Speed Gust Speed Precip Events Conditions
12:54 AM 68.0 °F - 46.0 °F 45% 29.69 in 10.0 mi Variable 3.5 mph - N/A   Mostly Cloudy
1:54 AM 66.0 °F - 51.1 °F 59% 29.68 in 8.0 mi WSW 5.8 mph - 0.00 in Rain Light Rain
2:54 AM 64.9 °F - 52.0 °F 63% 29.67 in 9.0 mi Variable 3.5 mph - 0.00 in Rain Light Rain
3:54 AM 62.1 °F - 55.9 °F 80% 29.66 in 4.0 mi SW 5.8 mph - 0.03 in Rain Light Rain
4:54 AM 61.0 °F - 57.0 °F 87% 29.62 in 4.0 mi SW 3.5 mph - 0.05 in Rain Light Rain
5:47 AM 60.1 °F - 57.0 °F 90% 29.62 in 2.5 mi Calm Calm - 0.02 in Rain Light Rain
5:54 AM 60.1 °F - 57.0 °F 90% 29.60 in 2.5 mi South 3.5 mph - 0.03 in Rain Light Rain
6:21 AM 60.1 °F - 57.0 °F 90% 29.62 in 2.5 mi Variable 3.5 mph - 0.00 in Rain Light Rain
6:54 AM 60.1 °F - 57.0 °F 90% 29.58 in 2.5 mi Variable 3.5 mph - 0.02 in Rain Light Rain
7:06 AM 60.1 °F - 57.0 °F 90% 29.61 in 1.8 mi Variable 3.5 mph - 0.01 in Rain Light Rain
7:16 AM 60.1 °F - 57.0 °F 90% 29.60 in 2.0 mi SSW 4.6 mph - 0.01 in Rain Light Rain
7:33 AM 60.1 °F - 57.0 °F 90% 29.60 in 3.0 mi Variable 3.5 mph - 0.02 in   Overcast
7:54 AM 61.0 °F - 57.0 °F 87% 29.57 in 2.5 mi Variable 3.5 mph - 0.02 in   Overcast
8:01 AM 60.1 °F - 57.0 °F 90% 29.59 in 1.8 mi Variable 4.6 mph - 0.00 in Rain Light Rain
8:54 AM 61.0 °F - 57.0 °F 87% 29.55 in 1.8 mi Variable 5.8 mph - 0.02 in   Overcast
9:11 AM 61.0 °F - 57.9 °F 90% 29.57 in 2.0 mi SW 5.8 mph - 0.00 in Rain Light Rain
9:42 AM 61.0 °F - 57.9 °F 90% 29.56 in 4.0 mi Variable 6.9 mph - 0.02 in Rain Light Rain
9:54 AM 61.0 °F - 57.9 °F 90% 29.54 in 3.0 mi SW 6.9 mph - 0.02 in Rain Light Rain
10:03 AM 61.0 °F - 57.9 °F 90% 29.56 in 2.5 mi Variable 6.9 mph - 0.00 in Rain Light Rain
10:11 AM 62.1 °F - 57.9 °F 86% 29.55 in 3.0 mi SW 8.1 mph - 0.00 in Rain Light Rain
10:54 AM 63.0 °F - 59.0 °F 87% 29.52 in 10.0 mi WSW 10.4 mph 18.4 mph 0.00 in   Overcast
11:20 AM 63.0 °F - 59.0 °F 87% 29.53 in 10.0 mi SW 10.4 mph 20.7 mph N/A   Overcast
11:49 AM 62.6 °F - 59.0 °F 88% 29.52 in 10.0 mi WSW 11.5 mph - N/A   Overcast
11:54 AM 63.0 °F - 59.0 °F 87% 29.50 in 10.0 mi WSW 9.2 mph 17.3 mph N/A   Overcast
12:37 PM 69.1 °F - 57.9 °F 68% 29.51 in 10.0 mi West 21.9 mph 26.5 mph N/A   Scattered Clouds
12:54 PM 71.1 °F - 57.9 °F 63% 29.48 in 10.0 mi WSW 16.1 mph 27.6 mph N/A   Partly Cloudy
1:54 PM 73.0 °F - 54.0 °F 51% 29.44 in 10.0 mi WSW 13.8 mph 34.5 mph N/A   Mostly Cloudy
2:54 PM 75.9 °F - 53.1 °F 45% 29.41 in 10.0 mi West 17.3 mph 29.9 mph N/A   Partly Cloudy
3:54 PM 75.0 °F - 50.0 °F 41% 29.38 in 10.0 mi West 20.7 mph 33.4 mph N/A   Scattered Clouds
4:54 PM 66.9 °F - 44.1 °F 44% 29.46 in 10.0 mi WNW 24.2 mph 43.7 mph N/A   Clear
5:54 PM 62.1 °F - 36.0 °F 38% 29.50 in 10.0 mi West 19.6 mph 39.1 mph N/A   Clear
6:54 PM 53.1 °F - 30.9 °F 43% 29.61 in 10.0 mi NNW 23.0 mph 31.1 mph N/A   Partly Cloudy
7:54 PM 48.9 °F - 28.9 °F 46% 29.68 in 10.0 mi NW 13.8 mph 32.2 mph N/A   Partly Cloudy
8:54 PM 48.0 °F - 26.1 °F 42% 29.72 in 10.0 mi WNW 12.7 mph - N/A   Scattered Clouds
9:54 PM 48.0 °F - 21.9 °F 36% 29.76 in 10.0 mi WNW 20.7 mph 33.4 mph N/A   Scattered Clouds
10:54 PM 46.0 °F 39.9 °F 19.9 °F 35% 29.79 in 10.0 mi WNW 13.8 mph 26.5 mph N/A   Clear
11:54 PM 44.1 °F 35.9 °F 19.9 °F 38% 29.82 in 10.0 mi WNW 19.6 mph 28.8 mph N/A   Scattered Clouds